Showing default

GHOST-4, 59133

Orbit data source: Space-Track

GHOST-4, 59133 is a payload satellite owned by Orbital Sidekick (US) in SSO that was launched on Mon, 04 Mar 2024 UTC via an FALCON 9 launch vehicle from the Air Force Western Test Range (AFWTR). Payload-class satellites include a variety of spacecraft equipped with specific instruments for various scientific and technological missions. These include communications satellites like Starlink; space stations such as the ISS; scientific satellites like the Hubble; Earth observation satellites from companies like Planet Labs, Umbra, and HawkEye 360; GPS; miniature CubeSats for education and research; and military/defense satellites.

Loading next visibility...
Identifier
59133, 2024-043AM
Orbit
SSO
Country
Flag of USUS
Related business
Manufacturer
Astro Digital
Mission
Operational Commercial Imaging
Bus & Motor
CORVUS-XL, Unknown motor
Mass
85 kg wet, 85 kg dry
Launch date (UTC)
2024-03-04 (2 years ago)
Launch vehicle
FALCON 9
Launch site
Air Force Western Test Range (AFWTR)
Object type
Payload
Rocket body
Debris
Shape & HBR
Box + 1 Dish, 1.0 m
Radar Cross Section
0.425 m², Medium (>0.1 m² and < 1m²)

Expand to show TLE details & history
Last TLE update: 6 hours ago

TLE from 6 hours ago
0 GHOST-4
1 59133U 24043AM  25351.30937335  .00013370  00000-0  36701-3 0  9997
2 59133  97.5355 125.4182 0009769 144.7478 215.4414 15.37333434 99539
Epoch: 2025-12-17T07:25Z
TLE epoch observation values (Epoch: 2025-12-17T07:25:29.857Z)
Latitude
-0.00003°
Longitude
-72.13728°
Altitude
462.549 km
Speed
7.632 km/s
True Right ascension
08h 21m 40s
True Declination
0° 00' 00"
Sunlit
Object was in full shadow at epoch
Visualization orbit readout
Latitude
Unknown
Longitude
Unknown
Altitude
Unknown
Speed
Unknown
Apparent Right ascension
Unknown
Apparent Declination
Unknown
Sunlit
N/A
Visualization observer readout
Local Sidereal Time
11:41:56
Azimuth
Unknown
Elevation
Unknown
Doppler factor
Unknown
Orbital elements
Apogee altitude
457.618 km
Perigee altitude
444.275 km
Semi-major axis
6,829.084 km
Eccentricity
0.00098
Inclination
97.5355°
RAAN
125.4182°
Arg. of periapsis
144.7478°
True anomaly
215.37655°
Mean anomaly
215.4414°
Eccentric anomaly
215.40897°
Mean motion
3.84591 °/min
Orbital period
93.61 mins
BSTAR
0.00036701
Loading maneuver chart data...
Computing Atmospheric mass density...
Loading historical data...
Loading historical data...
Loading historical data...
Loading historical data...
Loading historical data...
Loading historical data...
Loading historical data...

Documentation

Showing up to 5 results
|